Starlink 32310

operational
NORAD ID: 61662 Int'l Des: 2024-193 Owner: SPXS Country: US Constellation: starlink
LEOCIRCULAR

Starlink 32310について

説明を読み込み中...

リアルタイム位置

3D地球を読み込み中...

次回通過

高度履歴

Altitude vs Time

uPlot chart will show altitude changes over time

軌道要素

1 61662U 24193B 25306.36914079 .00000399 00000-0 25608-4 0 9991
2 61662 53.1617 322.3755 0001571 90.0732 270.0449 15.30191534 57031
Epoch: Nov 2, 2025 • Age: 15 hours

現在のステータス

高度 483.8 km
速度 7.62 km/s
衛星直下点 -26.97°S, 120.75°E
打ち上げ日 Oct 26, 2024
運用期間 1 years
タイプ internet

技術仕様

分類 Payload
質量 730.00 kg
乾燥質量 700.00 kg
総質量 730.00 kg
長さ 0.30 m
直径 4.10 m
スパン 29.00 m
形状 Box + pan
製造者 SPXS
バスタイプ Starlink V2M
フェーズステータス In Orbit
所有者/国 SPXS/US

大規模コンステレーション

Loading constellations...